Regional Weather Roundup
Issued by NWS New Orleans/Baton Rouge, LA

Home | Current Version | Previous Version | Text Only | Print | Product List | Glossary Off
Versions: 1 2 3 4 5 6 7 8 9 10 11 12 13 14 15 16 17 18 19 20 21 22 23 24 25 26 27 28 29 30 31 32 33 34 35 36 37 38 39 40 41 42 43 44 45 46 47 48 49 50

190
ASUS44 KLIX 301910
RWRLIX
NEW ORLEANS REGIONAL WEATHER ROUNDUP
NATIONAL WEATHER SERVICE NEW ORLEANS LA
200 PM CDT SAT AUG 30 2014

NOTE: "FAIR" INDICATES FEW OR NO CLOUDS BELOW 12,000 FEET WITH NO
      SIGNIFICANT WEATHER AND/OR OBSTRUCTIONS TO VISIBILITY.
      SKY/WX - SKY CONDITION AND SIGNIFICANT WEATHER.
      TMP - AIR TEMPERATURE.     DP    - DEWPOINT TEMPERATURE.
      RH  - RELATIVE HUMIDITY.   PRES  - PRESSURE.
      HI  - HEAT INDEX.          WCI   - WIND CHILL INDEX.

*  THESE STATIONS ARE NOT NWS OR FAA STATIONS AND ARE NOT UNDER
   NWS QUALITY CONTROL.

LAZ038-040-048-061>063-065>067-069-302000-
SOUTHEAST LOUISIANA

CITY           SKY/WX    TMP DP  RH WIND       PRES   REMARKS
N.O. AUDUBON   NOT AVBL
N.O. INTL ARPT TSTM      76  72  87 S15       30.10R
N.O. LAKEFRONT RAIN      75  74  96 SW14      30.09R FOG
N.O. DOWNTOWN* CLOUDY    75  70  83 SW9       30.10R
SLIDELL        LGT RAIN  75  72  90 SE3       30.09F
BATON ROUGE    RAIN      74  73  97 VRB3      30.04S FOG
BOOTHVILLE     PTSUNNY   88  78  72 S15G23    30.05S HX 101
BELLE CHASSE   TSTM      75  72  90 SW13      30.08R VSB 1
BOGALUSA*        N/A     76  72  87 SW7       30.12R
GALLIANO*      NOT AVBL
NEW ROADS*     LGT RAIN  76  74  95 SE13G20   30.02S
GONZALES*      RAIN      75  75 100 CALM      30.04F
HAMMOND*       LGT RAIN  75  72  88 E3        30.08F
HOUMA*         NOT AVBL
PORT FOURCHON* CLOUDY    81  73  78 SW18G26   30.06F

$$

MSZ070-080>082-302000-
SOUTHERN MISSISSIPPI

CITY           SKY/WX    TMP DP  RH WIND       PRES   REMARKS
MCCOMB         LGT RAIN  73  71  93 S9        30.06F
GULFPORT       CLOUDY    85  77  77 S13G20    30.05R HX  95
BILOXI         CLOUDY    87  76  70 S13G21    30.05F HX  98
PASCAGOULA     CLOUDY    86  76  71 SE8       30.05S HX  96
STENNIS ARPT*  CLOUDY   N/A N/A N/A W7        30.07F

$$

COASTAL OBSERVATIONS
LAKE AND NEARSHORE STATIONS

STATION/POSITION TIME  TEMP    WIND        PRES    WAVE
                       AIR SEA DIR/SP/G            HT/PER
                 (UTC) (F)     (DEG/KT/KT) (MB)    (FT/S)
PASCAGOULA       1900   89     170/ 13/ 17 1017.3
WAVELAND YACHT   1900   84     190/ 10/ 15 1017.0
GRAND ISLE       1900   86 83  180/  7/ 12 1018.1
SOUTHWEST PASS   1900   88 90  160/ 17/ 21 1017.9
NEW CANAL        1900   74 82  150/  3/  5 1019.9
SHELL BEACH      1900   80 81  200/  2/  4 1017.6

OFFSHORE STATIONS

STATION/POSITION TIME  TEMP    WIND        PRES    WAVE
                       AIR SEA DIR/SP/G            HT/PER
                 (UTC) (F)     (DEG/KT/KT) (MB)    (FT/S)
64 S DAUPHIN ISL 1900   85 86  150/ 16/ 17 1018.0

$$




USA.gov is the U.S. government's official web portal to all federal, state and local government web resources and services.